Theta_e
328 325 331 326 308 306 301 304 309 310 311 317 318 317 317 321 319 314 335 337 334 338 340 341 346 346 346 347 348 348 347 346 347 346 344 342 340 339 339 339 341 337 336 336 334 335 334 334 333
324 323 325 318 302 298 299 307 306 312 317 319 319 318 316 319 328 329 331 336 334 339 338 338 345 347 348 348 348 348 349 348 346 345 343 341 339 338 338 339 339 337 335 336 334 334 335 334 332
325 321 316 308 303 297 299 306 308 313 318 317 317 322 323 322 329 330 336 334 335 338 336 340 344 347 348 348 348 347 347 346 346 344 341 340 340 337 337 337 337 336 334 334 335 336 334 334 333
322 316 316 305 300 303 305 308 313 313 317 318 319 318 325 332 331 335 338 334 335 335 336 341 345 347 347 348 347 346 346 346 346 344 342 339 338 338 337 336 335 334 333 334 333 333 332 331 331
320 313 305 300 301 305 307 314 313 313 316 317 318 317 321 331 336 337 336 334 334 333 340 342 344 345 346 346 347 346 345 345 345 343 343 342 341 340 337 335 334 333 332 332 331 330 329 328 327
312 311 301 298 301 306 308 311 312 312 316 317 317 320 322 333 333 334 335 334 334 335 338 341 338 340 342 343 344 344 345 345 344 342 341 341 341 339 335 334 333 332 330 329 328 327 327 327 326
310 306 301 302 302 304 307 312 309 311 314 316 319 313 323 329 333 334 334 333 332 336 335 338 340 338 336 338 339 340 341 341 341 341 340 339 338 337 336 335 333 332 330 329 327 326 326 326 326
313 309 302 303 301 303 308 310 312 311 311 324 323 314 317 328 332 333 333 332 329 334 334 334 335 338 337 335 332 333 336 336 337 337 335 332 332 332 332 331 332 332 331 329 326 325 324 325 326
318 303 300 302 303 305 309 308 312 314 312 315 322 324 328 331 332 330 329 329 327 330 333 334 334 334 334 333 331 328 331 332 331 329 327 326 327 327 326 326 331 334 332 329 326 326 327 328 327
309 302 303 308 308 306 309 309 309 309 310 313 321 327 330 330 330 327 327 324 324 325 331 333 333 331 333 332 330 331 332 330 328 327 324 326 325 326 326 323 327 330 329 330 329 330 329 326 322
309 303 309 310 311 311 309 309 310 307 306 312 317 323 327 326 327 327 326 325 324 325 329 332 333 330 330 330 330 330 328 327 326 326 325 325 325 323 324 322 322 323 321 322 325 325 325 323 322
303 309 309 310 312 311 308 310 308 307 308 315 320 326 326 324 324 325 325 324 324 325 327 330 333 332 331 332 332 331 331 329 327 326 327 324 323 323 322 322 323 322 321 321 322 322 323 323 323
302 306 309 311 311 311 312 307 307 308 310 315 322 326 326 324 324 326 326 325 324 324 328 330 332 332 331 332 333 332 331 330 330 327 326 325 323 322 323 322 322 322 322 321 321 321 321 322 323
303 303 306 309 308 309 308 307 308 308 311 310 315 323 325 325 326 326 327 326 324 325 325 330 331 331 333 332 333 333 333 332 332 326 326 325 324 323 322 321 321 321 321 321 321 321 322 322 322
301 297 300 303 306 306 308 303 304 309 312 310 311 313 320 325 327 326 327 327 327 324 326 328 330 332 330 332 333 333 333 333 332 327 327 326 325 323 322 321 321 321 321 321 321 322 322 322 323
293 294 290 300 304 306 306 297 306 310 310 309 308 309 313 320 326 328 329 329 329 325 324 327 331 330 330 330 331 333 334 333 330 328 327 327 326 325 323 322 322 323 322 322 321 320 321 321 322
288 283 286 290 299 303 303 298 306 310 310 309 308 309 312 314 319 327 329 329 330 326 325 326 327 328 330 331 331 332 333 331 329 328 326 327 328 327 325 324 324 325 323 322 322 320 321 321 324
281 282 285 285 293 295 297 300 305 308 308 308 310 310 310 313 316 322 328 330 331 328 326 327 328 327 328 329 330 330 331 331 330 329 327 328 328 328 326 325 325 326 326 324 324 323 325 325 325
283 283 283 288 293 294 295 295 299 303 305 305 307 310 311 311 314 321 325 328 329 329 328 326 327 328 328 327 327 327 327 329 327 329 328 328 328 328 327 326 326 328 327 327 326 326 324 323 327
281 279 280 284 289 289 288 288 292 295 299 303 304 307 309 310 312 314 321 326 328 328 329 327 327 327 327 327 327 327 327 328 328 329 329 329 329 329 328 327 326 327 327 327 327 327 325 325 325
280 279 279 280 284 286 284 283 287 292 295 297 301 304 306 308 309 311 319 323 327 327 328 328 328 327 327 327 327 327 328 326 327 328 328 331 330 330 330 329 328 327 327 326 326 326 325 323 324
277 284 284 282 279 274 283 274 282 287 290 293 297 300 303 304 308 311 311 321 323 327 329 329 329 328 327 328 326 326 325 324 327 327 329 330 332 330 329 327 328 328 329 328 328 328 328 325 322
279 285 282 282 281 278 278 274 279 286 285 290 294 297 301 304 306 310 311 314 323 324 327 329 328 328 328 328 328 327 326 329 328 327 327 330 330 329 329 329 329 328 328 328 327 326 325 326 324
286 282 282 281 278 271 277 277 275 281 285 288 294 295 299 303 306 308 312 313 313 323 324 327 327 328 329 327 328 328 327 329 327 326 327 328 329 325 323 326 327 327 326 326 326 326 326 325 324
283 277 268 265 267 267 278 277 278 284 287 288 290 293 297 298 301 304 308 310 311 315 325 325 326 326 328 327 327 329 331 330 327 327 327 327 319 315 315 316 315 314 316 319 321 321 319 319 321
280 278 269 264 268 270 277 274 277 287 290 293 294 293 297 298 300 303 305 307 311 311 323 326 324 323 326 328 329 330 330 329 324 323 318 315 312 311 313 312 311 311 312 314 315 313 313 312 313
278 271 280 273 274 269 273 278 283 287 289 289 292 293 294 296 299 300 302 304 309 311 313 320 324 324 325 325 320 319 318 316 313 312 312 310 309 308 307 305 304 304 304 306 305 304 306 306 306
281 283 272 273 261 260 271 273 274 283 286 289 289 289 292 294 296 298 300 302 306 306 308 313 316 314 313 313 313 310 309 308 307 306 304 304 303 304 303 302 302 301 302 303 303 301 303 302 300
277 277 279 277 273 269 268 271 283 282 283 283 287 289 289 292 294 295 297 299 301 301 304 305 308 309 309 306 305 303 302 303 303 303 303 303 302 301 299 299 297 296 296 297 296 296 297 296 296
279 277 277 271 271 274 273 272 284 284 285 287 287 288 290 292 293 294 294 296 298 298 299 299 302 303 304 304 303 300 300 299 298 297 296 296 296 296 296 296 295 294 293 293 293 292 292 292 291
Wind_Speed
18 12 6 3 3 4 10 6 7 4 2 6 4 7 7 10 5 5 8 7 18 17 14 13 14 16 14 14 13 13 12 14 17 17 15 15 14 14 14 14 13 13 13 13 12 13 13 13 12
9 13 3 4 5 7 8 7 7 5 10 4 4 4 2 6 7 8 6 11 16 16 13 12 11 16 15 14 13 12 13 14 17 16 15 14 14 13 13 13 11 12 12 13 11 12 11 11 11
13 9 3 4 7 11 8 7 8 5 7 3 4 2 6 5 8 10 9 15 16 16 12 12 13 14 15 14 14 14 14 16 15 15 14 13 13 13 13 12 11 12 11 12 11 11 10 9 9
5 2 5 5 11 18 8 4 9 4 4 3 4 9 6 5 10 6 12 14 14 15 13 12 13 14 14 14 15 14 15 15 15 13 13 12 12 13 12 11 10 9 10 10 9 9 9 8 8
3 5 6 7 14 15 8 8 6 5 8 8 4 7 6 3 9 13 11 13 14 13 14 11 12 13 13 13 14 14 13 13 14 11 11 11 11 12 14 13 11 9 8 8 7 7 7 7 6
4 3 8 10 12 17 3 2 3 7 7 5 4 8 5 9 9 11 11 10 12 15 14 11 11 12 11 12 12 11 11 11 12 13 11 10 13 14 13 12 11 8 7 6 6 5 5 5 5
8 8 11 14 12 11 6 5 4 8 9 8 4 4 6 9 9 9 11 9 10 16 13 11 9 9 9 10 10 11 11 10 9 10 11 10 11 13 13 11 10 8 6 5 4 4 4 4 3
5 7 17 14 13 12 7 6 5 5 3 4 4 4 7 9 9 8 9 8 8 14 12 12 9 9 7 6 7 8 9 10 10 10 10 9 8 9 8 8 8 8 5 4 3 2 0 2 4
3 5 10 16 16 11 6 6 6 2 4 1 4 8 12 18 12 8 8 8 7 11 14 12 10 10 9 7 6 5 7 7 8 7 9 8 5 6 8 6 10 9 6 4 3 2 3 6 8
8 7 14 14 14 10 12 8 8 5 8 5 7 11 14 15 14 13 13 12 8 10 14 12 10 10 10 9 8 6 6 4 5 6 6 5 5 5 7 8 9 8 6 5 6 6 7 7 4
8 13 12 17 20 16 10 3 5 4 7 9 14 15 15 14 15 12 11 12 12 9 8 12 12 8 9 8 7 4 4 3 4 7 6 5 3 4 4 4 3 4 7 4 5 5 4 6 1
19 16 19 20 16 12 5 6 9 8 10 6 6 20 17 15 15 13 12 13 12 10 10 10 10 7 9 5 7 4 5 4 4 5 7 4 2 3 3 3 5 5 4 5 5 3 4 1 4
18 17 19 16 16 11 6 9 9 13 9 6 8 13 16 14 15 12 8 5 10 11 12 10 8 6 8 9 6 4 4 4 4 5 6 4 3 3 3 3 3 4 4 3 3 3 3 4 5
8 12 15 16 16 10 10 11 12 8 10 5 9 10 12 15 16 13 14 15 12 13 12 14 13 6 3 9 10 6 4 5 5 5 5 6 5 4 4 3 3 2 3 3 4 3 3 3 3
12 9 12 16 10 10 6 19 19 11 13 11 11 9 10 15 16 16 14 15 14 12 12 17 16 11 7 7 8 5 6 6 7 5 7 7 5 6 6 4 4 4 4 5 2 3 3 3 4
12 10 11 8 15 11 9 16 15 15 16 15 11 11 11 13 18 16 14 13 12 13 13 15 15 14 10 9 7 4 6 7 5 5 5 7 7 6 5 4 4 4 4 4 3 4 3 3 4
9 9 14 16 18 13 21 7 19 19 17 15 14 10 10 11 11 14 17 15 12 13 12 14 12 14 13 10 9 8 7 5 5 5 5 7 7 7 5 4 4 5 3 3 3 4 4 3 4
9 9 11 17 11 21 20 20 15 13 11 14 16 15 11 11 15 11 17 17 14 11 11 15 14 14 14 10 9 9 7 5 6 6 6 8 6 7 5 4 5 4 3 3 3 4 4 3 2
12 11 14 16 13 7 6 9 11 10 16 14 13 15 17 12 9 17 15 14 14 11 13 15 17 17 13 11 10 9 11 8 5 5 8 9 8 9 7 5 6 5 5 5 5 3 4 3 2
9 10 13 15 14 11 9 13 13 17 17 16 15 14 8 7 9 9 16 16 15 15 14 13 16 16 13 11 10 9 9 8 6 6 5 7 8 7 8 6 5 5 3 5 5 5 3 3 2
9 9 8 10 18 14 11 16 12 16 20 20 20 18 13 11 9 9 15 18 17 14 14 15 14 15 14 13 9 8 6 4 7 7 8 7 8 7 7 7 6 5 4 5 6 6 6 4 3
9 11 10 8 4 5 5 10 6 11 15 22 21 20 17 15 15 12 6 14 16 16 14 13 13 14 14 15 11 14 10 10 8 8 4 6 7 7 6 6 6 7 6 6 4 1 1 3 4
6 10 11 13 11 8 10 8 6 10 17 14 19 25 21 20 19 16 11 7 15 16 14 12 12 13 16 17 14 12 12 9 8 4 7 6 6 7 6 6 5 5 4 4 5 4 4 3 3
9 10 11 10 7 7 12 11 6 11 12 8 8 7 19 20 19 19 17 10 6 9 10 11 12 14 15 16 17 16 15 11 7 6 7 6 5 5 5 5 3 2 0 2 3 4 4 4 4
5 5 4 2 2 6 4 12 14 13 13 6 7 7 6 7 6 6 11 8 5 6 11 11 13 13 12 17 18 18 16 15 9 7 6 9 5 4 5 7 7 5 5 5 5 6 6 5 4
12 6 4 6 2 11 16 7 6 12 14 2 5 6 5 8 9 8 10 12 8 10 8 9 9 8 9 12 16 15 11 6 3 7 8 6 6 6 7 8 8 7 5 6 7 1 6 7 6
3 3 8 9 12 5 6 12 14 16 4 2 8 15 14 14 11 11 12 12 11 5 5 4 9 9 7 8 6 6 6 9 9 11 10 9 9 7 7 8 9 8 7 8 3 4 6 6 4
10 7 4 3 3 5 6 10 7 10 14 14 12 8 7 8 10 9 10 10 7 7 8 6 5 8 8 9 9 8 9 9 10 10 11 10 10 9 11 6 8 10 4 7 4 5 4 5 3
6 5 4 4 4 5 9 5 2 4 12 9 7 6 3 3 4 5 6 7 6 6 6 5 4 8 12 12 11 12 11 11 12 10 9 8 9 7 8 6 10 12 8 7 5 6 6 6 5
13 14 10 4 8 6 12 13 17 15 12 16 17 14 8 5 4 3 4 7 3 4 5 5 1 7 7 8 16 18 13 13 12 11 10 9 8 9 10 5 7 12 9 7 7 5 6 6 6
Wind_Direction
315 307 239 286 246 228 244 245 290 91 104 68 22 15 69 37 28 104 151 125 125 131 141 152 152 151 153 147 143 147 148 132 128 123 119 114 111 111 114 108 103 98 92 88 93 92 87 80 78
306 299 245 276 248 224 246 225 184 249 80 44 93 271 319 87 75 122 88 134 130 132 146 149 147 151 150 149 148 146 150 139 133 127 123 121 117 115 115 113 110 106 96 92 94 101 87 85 80
273 255 275 221 234 252 243 141 166 115 80 201 156 33 14 89 106 146 133 133 131 132 156 139 143 149 152 148 145 139 137 138 131 129 129 127 122 116 117 111 109 106 103 95 90 83 86 85 79
309 215 255 251 242 243 281 139 56 58 121 287 264 112 81 20 141 131 151 139 134 142 134 134 144 153 152 151 141 141 143 136 131 133 133 128 130 125 118 114 103 104 103 94 92 89 82 76 67
246 261 247 224 257 271 244 83 44 281 174 175 230 146 95 73 105 127 159 151 138 138 125 138 141 145 147 147 143 143 140 143 126 131 131 131 135 134 126 122 110 103 97 97 89 81 73 66 60
279 233 254 246 227 256 121 43 170 244 219 149 183 133 101 129 128 147 148 151 146 128 136 143 140 140 142 144 137 136 136 133 136 140 134 127 126 130 126 124 115 115 109 101 88 75 63 50 39
244 281 256 264 263 240 181 186 206 247 250 159 238 179 123 151 129 154 148 147 146 130 141 146 150 145 141 143 143 143 143 140 135 140 142 137 123 128 128 120 130 130 120 104 83 60 38 26 9
254 265 264 266 268 276 161 138 228 312 274 23 33 91 161 150 146 173 139 156 153 139 142 154 158 155 154 150 146 147 147 149 150 151 143 140 132 135 120 134 138 136 134 130 132 133 103 314 288
251 247 248 248 256 263 280 159 176 43 321 72 87 51 106 128 156 172 162 161 159 151 150 156 162 166 166 156 155 143 138 137 133 127 135 145 149 153 157 169 150 151 154 172 186 207 242 249 257
206 219 235 253 258 252 257 178 213 168 212 197 106 97 113 137 167 165 183 161 172 162 149 159 169 172 170 168 139 156 152 156 164 154 166 184 191 162 171 143 149 153 171 202 208 221 238 260 269
218 236 244 242 260 272 285 230 225 206 254 199 176 150 144 159 175 179 189 170 174 165 151 155 167 178 174 164 147 160 154 173 184 177 178 217 198 149 143 146 160 178 208 216 214 223 234 234 281
246 236 234 260 266 268 270 299 285 208 250 5 36 157 150 166 185 193 188 176 171 169 156 146 178 198 181 120 152 154 157 185 176 181 175 196 179 145 169 173 188 195 171 221 188 207 221 286 258
249 251 258 258 264 281 275 261 264 278 236 117 98 152 157 174 188 195 196 199 165 190 154 166 179 229 165 139 142 142 169 190 209 166 175 161 173 174 210 204 181 180 199 185 223 221 225 233 245
329 323 286 281 295 266 247 250 246 253 266 203 157 171 168 180 195 183 188 194 191 185 174 162 191 186 157 153 153 165 174 177 223 163 171 189 180 178 199 202 199 213 206 216 210 221 227 241 262
287 296 281 259 262 264 283 251 245 244 257 250 174 193 191 188 187 200 194 202 192 189 173 168 175 191 167 139 155 163 182 189 213 172 169 182 201 181 185 188 201 210 207 208 236 268 254 251 260
275 249 261 227 237 230 255 256 240 234 250 238 234 195 197 192 192 187 194 211 200 181 184 165 172 179 188 166 165 171 192 202 196 168 171 175 191 203 201 202 198 209 204 185 193 224 247 245 252
232 262 239 245 250 233 219 247 236 262 233 234 239 229 207 188 192 185 187 202 218 184 183 172 168 170 180 190 193 193 212 211 177 170 172 184 188 196 195 199 223 204 202 210 207 215 193 225 258
267 263 256 258 241 240 244 238 250 281 277 239 228 237 238 196 192 188 186 189 206 188 187 172 173 183 183 188 193 206 214 236 192 180 177 181 186 195 192 208 211 215 197 216 228 218 246 223 234
327 321 309 304 315 352 288 312 299 282 285 284 284 232 231 232 211 187 182 183 182 190 193 178 177 180 182 186 185 188 204 224 196 203 186 181 181 187 191 191 201 197 200 211 224 231 227 267 232
309 303 300 297 305 314 319 294 292 286 287 285 285 291 275 253 247 203 178 177 180 196 191 189 183 179 183 189 191 196 201 214 197 200 200 183 181 188 188 182 204 196 190 202 217 219 232 212 174
292 276 277 290 317 314 306 284 267 265 271 281 274 276 288 294 274 262 180 179 183 185 196 198 188 176 180 184 190 196 204 205 201 214 201 197 183 183 177 182 174 191 194 213 221 219 210 204 212
300 352 330 297 281 264 355 290 292 306 257 245 244 262 264 275 282 284 245 186 180 186 198 196 190 177 174 173 188 198 200 200 212 202 181 184 171 172 185 181 183 197 195 213 221 272 247 153 208
282 357 316 305 296 271 256 277 227 224 260 265 235 237 235 241 251 262 279 192 194 190 187 189 190 176 171 176 188 194 201 204 196 186 174 173 165 176 184 184 182 189 190 202 200 205 210 212 200
296 298 288 261 265 256 235 231 200 211 235 242 283 277 225 228 226 242 253 268 202 188 173 175 186 194 177 179 191 198 202 203 188 191 182 168 131 98 80 96 113 83 8 252 228 222 214 233 233
239 295 303 308 224 240 246 222 247 302 284 285 292 296 15 8 30 275 253 232 293 202 172 181 187 193 182 182 188 202 202 200 184 167 153 139 121 97 79 83 78 70 57 39 40 59 52 36 44
300 258 241 301 290 313 308 260 258 226 249 350 272 241 26 10 4 16 0 343 238 194 184 173 172 198 183 180 191 199 202 194 136 119 112 97 97 97 96 85 76 59 52 57 46 93 76 63 54
263 265 265 281 286 270 223 293 304 292 275 250 11 32 21 6 4 1 355 342 345 9 98 187 179 180 179 170 122 96 115 117 121 111 110 116 113 115 95 110 92 86 68 53 84 58 56 74 68
234 269 317 242 275 262 254 248 267 31 35 23 14 17 11 359 348 345 342 339 6 3 352 39 85 114 101 101 109 105 97 100 103 109 106 108 108 117 117 77 93 96 54 94 49 60 50 83 48
310 275 254 281 260 272 282 258 141 90 350 326 303 317 299 278 302 320 326 325 5 11 353 347 108 133 137 130 120 111 106 100 98 96 101 110 104 104 75 116 103 96 80 54 78 50 55 57 52
266 282 300 298 303 286 277 267 289 307 342 333 321 309 299 254 251 294 314 310 337 23 336 312 168 133 141 144 142 129 117 111 104 98 85 79 81 95 95 74 103 84 82 61 65 77 62 55 50